Location: Antioch Baptist Church
(32.7160°N, 96.7483°W)
Time: 17:07:39
(UTC+00:00)

SAR-Lupe-2 - Pass Details

Date: 05 December 2023
Orbit: 481 x 482 km, 98.1° (Epoch: 05 September)

Event Time Altitude Azimuth Distance (km) Brightness Sun altitude
Rises 12:06:59 0° 16° (NNE) 2,547 7.2 -14.0°
Reaches altitude 10° 12:09:05 10° 21° (NNE) 1,663 6.3 -13.6°
Maximum altitude 12:12:36 58° 101° (E) 563 4.2 -12.8°
Drops below altitude 10° 12:16:06 10° 181° (S) 1,651 6.5 -12.2°
Sets 12:18:10 0° 186° (S) 2,525 7.4 -11.7°
